Regional Weather Roundup
Issued by NWS

Home | Current Version | Previous Version | Graphics & Text | Print | Product List | Glossary On
Versions: 1 2 3 4 5 6 7 8 9 10 11 12 13 14 15 16 17 18 19 20 21 22 23 24 25 26 27 28 29 30 31 32 33 34 35 36 37 38 39 40 41 42 43 44 45 46 47 48 49 50
000
ASUS43 KDTX 121510
RWRMI
MICHIGAN HOURLY REGIONAL WEATHER ROUNDUP
NATIONAL WEATHER SERVICE DETROIT/PONTIAC MI
1100 AM EDT SAT JUL 12 2014

NOTE: "FAIR" INDICATES FEW OR NO CLOUDS BELOW 12,000 FEET WITH NO
SIGNIFICANT WEATHER AND/OR OBSTRUCTION TO VISIBILITY.

MIZ047>049-052>055-059>063-066>070-074>076-081>083-121600-
SOUTHEAST LOWER MICHIGAN

CITY           SKY/WX    TMP DP  RH WIND       PRES   REMARKS
ADRIAN         SUNNY     80  61  52 SW9       30.14F
ALMA           MOSUNNY   77  63  61 S8        30.11S
ANN ARBOR      SUNNY     78  60  53 S9        30.13F
BAD AXE        SUNNY     77  60  54 SW7       30.11F
DETROIT CITY   SUNNY     82  59  45 SW10      30.13F
DETROIT        PTSUNNY   80  60  50 S7        30.14F
FLINT          MOSUNNY   80  61  52 S7        30.11F
GROSSE ILE     SUNNY     81  64  57 S7        30.13S
HILLSDALE      SUNNY     78  64  61 CALM      30.14F
HOWELL         SUNNY     77  60  56 S8        30.12F

CITY           SKY/WX    TMP DP  RH WIND       PRES   REMARKS
JACKSON        SUNNY     79  60  52 SW10      30.13S
LAMBERTVILLE   SUNNY     81  59  47 S7        30.14S
LANSING        SUNNY     78  62  57 SW8       30.12S
LAPEER         NOT AVBL
MASON          SUNNY     77  62  59 SW5       30.12S
MONROE         SUNNY     82  59  44 S6        30.12S
PONTIAC        PTSUNNY   78  59  51 S8        30.12F
PORT HOPE        N/A     78  58  49 VRB7      30.08F
PORT HURON     SUNNY     77  64  65 SW6       30.13F
TRI CITIES     MOSUNNY   78  63  59 SW10      30.10F
YPSILANTI      SUNNY     83  60  45 S7        30.13F
$$
MIZ043>046-050>051-056>058-064>065-071>073-077>080-121600-
SOUTHWEST LOWER MICHIGAN

CITY           SKY/WX    TMP DP  RH WIND       PRES   REMARKS
BATTLE CREEK   CLOUDY    77  63  61 S10       30.12F
BENTON HARBOR  CLOUDY    74  64  71 S9        30.05F
BIG RAPIDS     CLOUDY    74  62  66 S7        30.07F
COLDWATER      CLOUDY    78  64  62 S5        30.12F
HOLLAND        CLOUDY    74  65  73 S3        30.08F
GRAND RAPIDS   PTSUNNY   81  64  56 S9        30.09F
KALAMAZOO      PTSUNNY   77  63  61 S9        30.10F
MARSHALL       MOSUNNY   77  63  61 SW6       30.11F
MUSKEGON       CLOUDY    76  62  62 S6        30.06F
$$
MIZ016>042-121600-
NORTHERN LOWER MICHIGAN

CITY           SKY/WX    TMP DP  RH WIND       PRES   REMARKS
ALPENA         CLOUDY    71  58  63 S7        30.05F
BEAVER ISLAND  MOSUNNY   68  62  82 SW13      30.00F
BELLAIRE       CLOUDY    74  60  61 S5        30.03S
CADILLAC       PTSUNNY   75  63  66 SW10      30.08S
CHARLEVOIX     PTSUNNY   74  61  63 SW8       30.05F
FRANKFORT      CLOUDY    73  60  65 S7        30.04F
GAYLORD        PTSUNNY   74  60  61 SW13      30.06F
GRAYLING       MOSUNNY   75  60  58 S7        30.07F
HARBOR SPRINGS PTSUNNY   72  60  66 SW3       30.01F
HOUGHTON LAKE  MOSUNNY   76  60  57 SW8       30.09F
MANISTEE       CLOUDY    72  61  68 CALM      30.05F
OSCODA         MOSUNNY   80  57  46 SW12      30.07F
PELLSTON       PTSUNNY   74  61  63 VRB7      30.02F
TRAVERSE CITY  CLOUDY    77  60  55 W8        30.03S
$$
MIZ007>008-015-121600-
EASTERN UPPER MICHIGAN

CITY           SKY/WX    TMP DP  RH WIND       PRES   REMARKS
KINROSS        MOSUNNY   72  61  68 SW6       30.00F
MACKINAC ISLAN CLOUDY    66  60  82 SW5       30.01F
NEWBERRY       SUNNY     71  62  72 SW3       29.99S
S. S. MARIE    CLOUDY    70  60  70 S8        29.99F
$$
MIZ004>006-011>014-085-121600-
CENTRAL UPPER MICHIGAN

CITY           SKY/WX    TMP DP  RH WIND       PRES   REMARKS
MANISTIQUE     MOSUNNY   65  59  81 S5        29.99S
ESCANABA       MOSUNNY   75  64  69 CALM      29.98S
MENOMINEE      CLOUDY    73  64  73 W3        29.98F
SAWYER-GWINN   MOSUNNY   73  66  78 NW7       29.99F
$$
MIZ001>003-009>011-084-121600-
WESTERN UPPER MICHIGAN

CITY           SKY/WX    TMP DP  RH WIND       PRES   REMARKS
IRON MOUNTAIN  PTSUNNY   74  66  76 NW6       29.99S
HOUGHTON       MOSUNNY   71  60  68 NW8       29.97S
COPPER HARBOR    N/A     64  57  78 N10       29.96R
IRONWOOD       PTSUNNY   70  61  73 CALM      29.98S
$$

ABBREVIATIONS USED IN REMARKS
   TC - TEMPERATURE IN CELSIUS
  WCI - WIND CHILL INDEX
   HX - HEAT INDEX
  VSB - VISIBILITY




USA.gov is the U.S. government's official web portal to all federal, state and local government web resources and services.